When you browse on this site, cookies collect data to enhance your experience and personalize the content and advertising you see.
Visit our Privacy Policy to learn more. By continuing to use the site, you agree to this use of cookies and data.
  • In Belgien
  • Länderverzeichnis
  • Für 7 Tage
  • Wassertemperatur
  • Satellitenkarten
  • Wetterkarte
  • Widgets
  • user-avatar
    Anmelden

    Stündliche Wetter Lezhe

    Heute, 23 Januar, Mittwoch

    Zeit Temperatur Niederschläge Wind Luftdruck Luftfeuchtigkeit
    00:00 +7°C° 0.8 mm 3 m/S 728 mmHg 90%
    01:00 +5°C° 0.8 mm 3 m/S 728 mmHg 91%
    02:00 +5°C° 0.9 mm 3 m/S 727 mmHg 91%
    03:00 +5°C° 0.9 mm 3 m/S 727 mmHg 91%
    04:00 +5°C° 0.9 mm 3 m/S 727 mmHg 91%
    05:00 +5°C° 0.8 mm 3 m/S 727 mmHg 90%
    06:00 +6°C° 0.8 mm 2 m/S 726 mmHg 88%
    07:00 +6°C° 0.8 mm 2 m/S 726 mmHg 87%
    08:00 +7°C° 0.2 mm 2 m/S 726 mmHg 84%
    09:00 +7°C° 0.2 mm 2 m/S 726 mmHg 81%
    10:00 +8°C° 0.2 mm 2 m/S 726 mmHg 77%
    11:00 +9°C° 0.1 mm 2 m/S 726 mmHg 73%
    12:00 +9°C° 0.1 mm 2 m/S 725 mmHg 70%
    13:00 +10°C° 0.1 mm 2 m/S 724 mmHg 66%
    14:00 +10°C° 0 mm 1 m/S 724 mmHg 69%
    15:00 +10°C° 0 mm 1 m/S 723 mmHg 72%
    16:00 +8°C° 0 mm 0 m/S 723 mmHg 75%
    17:00 +9°C° 0 mm 1 m/S 722 mmHg 77%
    18:00 +8°C° 0 mm 1 m/S 722 mmHg 79%
    19:00 +8°C° 0 mm 1 m/S 722 mmHg 80%
    20:00 +7°C° 0.2 mm 1 m/S 722 mmHg 81%
    21:00 +7°C° 0.2 mm 1 m/S 722 mmHg 81%
    22:00 +7°C° 0.2 mm 1 m/S 721 mmHg 82%
    23:00 +7°C° 0.1 mm 1 m/S 721 mmHg 82%

    Morgen, 24 Januar, Donnerstag

    Zeit Temperatur Niederschläge Wind Luftdruck Luftfeuchtigkeit
    00:00 +5°C° 0.1 mm 2 m/S 721 mmHg 82%
    01:00 +5°C° 0.1 mm 2 m/S 720 mmHg 82%
    02:00 +6°C° 0.1 mm 1 m/S 720 mmHg 82%
    03:00 +6°C° 0.1 mm 1 m/S 720 mmHg 82%
    04:00 +6°C° 0.1 mm 1 m/S 719 mmHg 82%
    05:00 +6°C° 0.3 mm 1 m/S 720 mmHg 84%
    06:00 +6°C° 0.3 mm 1 m/S 720 mmHg 85%
    07:00 +6°C° 0.3 mm 1 m/S 720 mmHg 86%
    08:00 +6°C° 0.1 mm 1 m/S 720 mmHg 84%
    09:00 +7°C° 0.1 mm 1 m/S 720 mmHg 82%
    10:00 +7°C° 0.1 mm 1 m/S 721 mmHg 80%
    11:00 +8°C° 0 mm 1 m/S 720 mmHg 77%
    12:00 +8°C° 0 mm 1 m/S 720 mmHg 74%
    13:00 +9°C° 0 mm 1 m/S 720 mmHg 71%
    14:00 +8°C° 0 mm 1 m/S 720 mmHg 73%
    15:00 +8°C° 0 mm 1 m/S 720 mmHg 74%
    16:00 +7°C° 0 mm 2 m/S 721 mmHg 76%
    17:00 +6°C° 0 mm 2 m/S 721 mmHg 77%
    18:00 +4°C° 0 mm 3 m/S 721 mmHg 78%
    19:00 +3°C° 0 mm 3 m/S 721 mmHg 79%
    20:00 +3°C° 0 mm 4 m/S 721 mmHg 77%
    21:00 +3°C° 0 mm 4 m/S 720 mmHg 75%
    22:00 +3°C° 0 mm 4 m/S 720 mmHg 73%
    23:00 +2°C° 0.1 mm 5 m/S 720 mmHg 73%

    übermorgen, 25 Januar, Freitag

    Zeit Temperatur Niederschläge Wind Luftdruck Luftfeuchtigkeit
    00:00 +2°C° 0.1 mm 5 m/S 720 mmHg 73%
    01:00 +2°C° 0.1 mm 5 m/S 720 mmHg 73%
    02:00 +2°C° 0 mm 5 m/S 720 mmHg 73%
    03:00 +3°C° 0 mm 4 m/S 720 mmHg 74%
    04:00 +1°C° 0 mm 4 m/S 720 mmHg 75%
    05:00 +1°C° 0.1 mm 4 m/S 720 mmHg 76%
    06:00 +1°C° 0.1 mm 4 m/S 721 mmHg 77%
    07:00 +1°C° 0.1 mm 4 m/S 721 mmHg 78%
    08:00 +1°C° 0.5 mm 4 m/S 721 mmHg 78%
    09:00 +1°C° 0.5 mm 5 m/S 721 mmHg 79%
    10:00 +2°C° 0.5 mm 5 m/S 722 mmHg 79%
    11:00 +2°C° 0.1 mm 5 m/S 722 mmHg 76%
    12:00 +3°C° 0.1 mm 5 m/S 722 mmHg 73%
    13:00 +3°C° 0.1 mm 5 m/S 722 mmHg 71%
    14:00 +3°C° 0 mm 5 m/S 722 mmHg 71%
    15:00 +4°C° 0 mm 4 m/S 722 mmHg 71%
    16:00 +4°C° 0 mm 4 m/S 722 mmHg 71%
    17:00 +3°C° 0 mm 4 m/S 722 mmHg 72%
    18:00 +1°C° 0 mm 4 m/S 722 mmHg 73%
    19:00 0°C° 0 mm 4 m/S 723 mmHg 74%
    20:00 0°C° 0 mm 4 m/S 723 mmHg 74%
    21:00 0°C° 0 mm 4 m/S 723 mmHg 74%
    22:00 -1°C° 0 mm 4 m/S 723 mmHg 74%
    23:00 -1°C° 0 mm 4 m/S 724 mmHg 73%

    26 Januar, Samstag

    Zeit Temperatur Niederschläge Wind Luftdruck Luftfeuchtigkeit
    00:00 -1°C° 0 mm 4 m/S 724 mmHg 72%
    01:00 0°C° 0 mm 3 m/S 724 mmHg 72%
    02:00 0°C° 0 mm 3 m/S 724 mmHg 72%
    03:00 0°C° 0 mm 3 m/S 724 mmHg 72%
    04:00 0°C° 0 mm 3 m/S 724 mmHg 73%
    05:00 0°C° 0 mm 3 m/S 724 mmHg 73%
    06:00 0°C° 0 mm 3 m/S 724 mmHg 74%
    07:00 0°C° 0 mm 3 m/S 725 mmHg 74%
    08:00 +1°C° 0 mm 3 m/S 725 mmHg 70%
    09:00 +2°C° 0 mm 3 m/S 725 mmHg 66%
    10:00 +3°C° 0 mm 3 m/S 726 mmHg 62%
    11:00 +4°C° 0 mm 3 m/S 726 mmHg 60%
    12:00 +5°C° 0 mm 3 m/S 725 mmHg 59%
    13:00 +5°C° 0 mm 3 m/S 725 mmHg 58%
    14:00 +5°C° 0 mm 3 m/S 726 mmHg 60%
    15:00 +5°C° 0 mm 3 m/S 726 mmHg 63%
    16:00 +4°C° 0 mm 3 m/S 726 mmHg 65%
    17:00 +3°C° 0 mm 3 m/S 726 mmHg 68%
    18:00 +3°C° 0 mm 2 m/S 727 mmHg 71%
    19:00 +2°C° 0 mm 2 m/S 727 mmHg 73%
    20:00 +2°C° 0 mm 2 m/S 727 mmHg 73%
    21:00 +2°C° 0 mm 2 m/S 727 mmHg 74%
    22:00 +2°C° 0 mm 2 m/S 728 mmHg 74%
    23:00 +2°C° 0 mm 2 m/S 728 mmHg 74%

    27 Januar, Sonntag

    Zeit Temperatur Niederschläge Wind Luftdruck Luftfeuchtigkeit
    00:00 +2°C° 0 mm 2 m/S 727 mmHg 75%
    01:00 +1°C° 0 mm 2 m/S 727 mmHg 75%
    02:00 +1°C° 0 mm 2 m/S 727 mmHg 75%
    03:00 +1°C° 0 mm 2 m/S 727 mmHg 75%
    04:00 +1°C° 0 mm 2 m/S 727 mmHg 75%
    05:00 +1°C° 0 mm 2 m/S 727 mmHg 74%
    06:00 +1°C° 0 mm 2 m/S 727 mmHg 74%
    07:00 +1°C° 0 mm 2 m/S 727 mmHg 73%
    08:00 +3°C° 0 mm 1 m/S 727 mmHg 68%
    09:00 +5°C° 0 mm 1 m/S 727 mmHg 63%
    10:00 +6°C° 0 mm 1 m/S 727 mmHg 58%
    11:00 +7°C° 0 mm 1 m/S 727 mmHg 57%
    12:00 +7°C° 0 mm 1 m/S 726 mmHg 55%
    13:00 +8°C° 0 mm 1 m/S 726 mmHg 54%
    14:00 +8°C° 0 mm 1 m/S 726 mmHg 57%
    15:00 +7°C° 0 mm 1 m/S 726 mmHg 60%
    16:00 +7°C° 0 mm 1 m/S 726 mmHg 63%
    17:00 +6°C° 0 mm 1 m/S 727 mmHg 65%
    18:00 +4°C° 0 mm 2 m/S 727 mmHg 67%
    19:00 +3°C° 0 mm 2 m/S 727 mmHg 70%
    20:00 +3°C° 0 mm 2 m/S 728 mmHg 72%
    21:00 +3°C° 0 mm 2 m/S 728 mmHg 74%
    22:00 +2°C° 0 mm 3 m/S 728 mmHg 75%
    23:00 +2°C° 0 mm 3 m/S 728 mmHg 76%

    28 Januar, Montag

    Zeit Temperatur Niederschläge Wind Luftdruck Luftfeuchtigkeit
    00:00 +2°C° 0 mm 3 m/S 728 mmHg 77%
    01:00 +1°C° 0 mm 3 m/S 728 mmHg 78%
    02:00 +1°C° 0 mm 3 m/S 728 mmHg 78%
    03:00 +1°C° 0 mm 3 m/S 728 mmHg 77%
    04:00 +1°C° 0 mm 3 m/S 727 mmHg 77%
    05:00 +2°C° 0 mm 3 m/S 727 mmHg 75%
    06:00 +2°C° 0 mm 3 m/S 727 mmHg 74%
    07:00 +2°C° 0 mm 3 m/S 727 mmHg 72%
    08:00 +3°C° 0.1 mm 3 m/S 728 mmHg 68%
    09:00 +5°C° 0.1 mm 3 m/S 728 mmHg 64%
    10:00 +7°C° 0.1 mm 2 m/S 728 mmHg 59%
    11:00 +7°C° 0.7 mm 2 m/S 728 mmHg 65%
    12:00 +6°C° 0.7 mm 2 m/S 728 mmHg 70%
    13:00 +6°C° 0.7 mm 2 m/S 728 mmHg 76%
    14:00 +6°C° 0.4 mm 2 m/S 728 mmHg 77%
    15:00 +6°C° 0.4 mm 2 m/S 729 mmHg 78%
    16:00 +6°C° 0.4 mm 2 m/S 729 mmHg 79%
    17:00 +5°C° 0 mm 2 m/S 729 mmHg 80%
    18:00 +5°C° 0 mm 2 m/S 730 mmHg 80%
    19:00 +4°C° 0 mm 2 m/S 730 mmHg 80%
    20:00 +4°C° 0 mm 2 m/S 730 mmHg 80%
    21:00 +4°C° 0 mm 2 m/S 730 mmHg 79%
    22:00 +3°C° 0 mm 2 m/S 731 mmHg 79%
    23:00 +3°C° 0 mm 2 m/S 730 mmHg 78%
    Mehr zeigen